Location: Homewood
(41.1836°S, 175.9581°E)
Time: 04:09:06
(UTC+00:00)

Cosmos 1607 - Pass Details

Date: 24 July 2024
Orbit: 928 x 973 km, 65.0° (Epoch: 20 May)

Event Time Altitude Azimuth Distance (km) Brightness Sun altitude
Exits shadow 18:27:28 - 220° (SW) 2,752 5.9 -11.9°
Reaches altitude 10° 18:27:39 10° 220° (SW) 2,683 5.8 -11.9°
Maximum altitude 18:33:45 56° 296° (WNW) 1,129 4.1 -10.8°
Drops below altitude 10° 18:39:52 10° 12° (NNE) 2,684 6.7 -9.7°
Sets 18:42:27 0° 16° (NNE) 3,629 7.5 -9.2°
